Location: Stanford
(52.2833°N, 2.4333°W)
Time: 02:31:52
(UTC+00:00)

Aureole 2 Rocket - Pass Details

Date: 22 January 2021
Orbit: 286 x 376 km, 73.9° (Epoch: 24 February)

Event Time Altitude Azimuth Distance (km) Brightness Sun altitude
Rises 17:15:47 0° 158° (SSE) 2,233 6.0 -5.8°
Reaches altitude 10° 17:18:36 10° 128° (SE) 1,410 4.6 -6.2°
Maximum altitude 17:20:03 13° 100° (E) 1,270 4.2 -6.4°
Drops below altitude 10° 17:21:31 10° 72° (ENE) 1,434 4.3 -6.6°
Enters shadow 17:21:54 - 66° (ENE) 1,521 4.4 -6.7°
